Regional Weather Roundup
Issued by NWS

Home | Current Version | Previous Version | Graphics & Text | Print | Product List | Glossary On
Versions: 1 2 3 4 5 6 7 8 9 10 11 12 13 14 15 16 17 18 19 20 21 22 23 24 25 26 27 28 29 30 31 32 33 34 35 36 37 38 39 40 41 42 43 44 45 46 47 48 49 50
000
ASUS43 KDTX 300110
RWRMI
MICHIGAN HOURLY REGIONAL WEATHER ROUNDUP
NATIONAL WEATHER SERVICE DETROIT/PONTIAC MI
900 PM EDT WED OCT 29 2014

NOTE: "FAIR" INDICATES FEW OR NO CLOUDS BELOW 12,000 FEET WITH NO
SIGNIFICANT WEATHER AND/OR OBSTRUCTION TO VISIBILITY.

MIZ047>049-052>055-059>063-066>070-074>076-081>083-300200-
SOUTHEAST LOWER MICHIGAN

CITY           SKY/WX    TMP DP  RH WIND       PRES   REMARKS
ADRIAN         PTCLDY    41  37  86 W5        30.09R
ALMA           PTCLDY    40  36  84 W6        30.08R
ANN ARBOR      MOCLDY    40  34  79 W6        30.07R
BAD AXE        PTCLDY    43  37  79 NW10      30.03R
CARO           PTCLDY    43  36  75 NW5       30.04R
DETROIT CITY   CLOUDY    48  35  60 W7        30.06R
DETROIT        MOCLDY    44  35  70 W7        30.07R
FLINT          CLOUDY    47  37  68 W10       30.06R
GROSSE ILE     CLOUDY    45  37  76 W7        30.06R
HILLSDALE      CLOUDY    42  41  97 W5        30.08S
HOWELL         CLOUDY    43  36  74 W6        30.06R

CITY           SKY/WX    TMP DP  RH WIND       PRES   REMARKS
JACKSON        CLOUDY    42  37  82 W6        30.08R
LAMBERTVILLE   CLOUDY    45  39  81 W6        30.09S
LANSING        CLOUDY    44  36  73 W6        30.08R
LAPEER         CLOUDY    45  35  67 W6        30.04R
MASON          CLOUDY    43  36  77 W6        30.08R
MONROE         PTCLDY    41  36  81 W5        30.06S
MT. CLEMENS    CLOUDY    46  35  66 W8        30.02R
PONTIAC        MOCLDY    45  34  65 W13       30.04S
PORT HOPE        N/A     46  37  71 NW12      30.00R
PORT HURON     CLOUDY    45  36  70 W3        30.03S
TRI CITIES     PTCLDY    43  34  70 NW8       30.07R
TROY           CLOUDY    47  34  59 SW5       30.06S
SAGINAW HB     PTCLDY    43  34  70 NW7       30.06R
$$
MIZ043>046-050>051-056>058-064>065-071>073-077>080-300200-
SOUTHWEST LOWER MICHIGAN

CITY           SKY/WX    TMP DP  RH WIND       PRES   REMARKS
BATTLE CREEK   CLOUDY    44  37  76 W7        30.10R
BENTON HARBOR  CLOUDY    46  33  60 NW8       30.12R
BIG RAPIDS     CLEAR     38  37  97 W5        30.08R WCI  35
COLDWATER      CLOUDY    44  39  84 W7        30.10S
FREMONT        CLOUDY    41  36  83 CALM      30.09S
HOLLAND        CLOUDY    47  37  68 N3        30.11R
GRAND RAPIDS   PTCLDY    42  36  79 NW6       30.10R
IONIA          MOCLDY    44  36  74 NW8       30.08R
KALAMAZOO      CLOUDY    45  36  70 NW7       30.11R
LUDINGTON      CLOUDY    42  40  93 CALM      30.09S
MARSHALL       CLOUDY    41  38  89 W6        30.09R
MOUNT PLEASANT PTCLDY    41  35  79 CALM      30.07R
MUSKEGON       CLOUDY    46  36  68 NE3       30.10S
SOUTH HAVEN    CLOUDY    48  35  60 NW8       30.11S
$$
MIZ016>042-300200-
NORTHERN LOWER MICHIGAN

CITY           SKY/WX    TMP DP  RH WIND       PRES   REMARKS
ALPENA         PTCLDY    41  34  76 NW8G18    30.03R
BEAVER ISLAND  PTCLDY    40  33  75 NW7       30.06F
BELLAIRE       MOCLDY    43  35  74 NW3       30.07S
CADILLAC       MOCLDY    38  35  89 NW5       30.05S WCI  34
CHARLEVOIX     PTCLDY    41  33  74 NW10G17   30.09S
FRANKFORT      CLOUDY    45  38  76 CALM      30.08S
GAYLORD        CLOUDY    38  35  89 NW6       30.04R WCI  33
GRAYLING       MOCLDY    38  35  88 W3        30.05S
HARBOR SPRINGS MOCLDY    40  33  75 W6        30.06R
HOUGHTON LAKE  PTCLDY    38  36  92 NW7       30.05S WCI  33
MANISTEE       MOCLDY    41  36  81 CALM      30.09S
OSCODA         CLOUDY    42  35  77 NW8       30.02S
PELLSTON       CLOUDY    41  34  76 NW10      30.06R
ROGERS CITY    MOCLDY    41  36  81 NW12G17   30.04R
TRAVERSE CITY  CLOUDY    45  36  70 N6        30.07S
$$
MIZ007>008-015-300200-
EASTERN UPPER MICHIGAN

CITY           SKY/WX    TMP DP  RH WIND       PRES   REMARKS
KINROSS        CLOUDY    36  34  93 W7        30.02S WCI  30
MACKINAC ISLAN CLEAR     38  32  81 NW15      30.04S WCI  29
NEWBERRY       PTCLDY    34  32  91 NW6       30.04S WCI  29
S. S. MARIE    MOCLDY    39  30  70 NW9       30.01R WCI  33
MUNISING         N/A     42  35  76 NW6       30.06S
$$
MIZ004>006-011>014-085-300200-
CENTRAL UPPER MICHIGAN

CITY           SKY/WX    TMP DP  RH WIND       PRES   REMARKS
MANISTIQUE     CLEAR     33  32  96 CALM      30.06S
ESCANABA       CLEAR     39  34  81 NE3       30.07R
MENOMINEE      CLOUDY    45  36  70 CALM      30.06S
SAWYER-GWINN   CLEAR     37  32  81 NW3       30.05S
$$
MIZ001>003-009>011-084-300200-
WESTERN UPPER MICHIGAN

CITY           SKY/WX    TMP DP  RH WIND       PRES   REMARKS
IRON MOUNTAIN  PTCLDY    37  31  78 CALM      30.05S
HOUGHTON       CLOUDY    39  32  76 CALM      30.04R
COPPER HARBOR    N/A     42  33  70 CALM      30.04S
IRONWOOD       CLOUDY    39  34  81 W6        30.05S WCI  35
$$

ABBREVIATIONS USED IN REMARKS
   TC - TEMPERATURE IN CELSIUS
  WCI - WIND CHILL INDEX
   HX - HEAT INDEX
  VSB - VISIBILITY




USA.gov is the U.S. government's official web portal to all federal, state and local government web resources and services.